Weather History for Deadhorse, AK

Change the Weather History Date:

Saturday, May 24, 2014

  Actual Average Record
Temperature  
Mean Temperature 19 °F -  
Max Temperature 24 °F 29 °F 55 °F (2002)
Min Temperature 14 °F 19 °F 3 °F (2001)
Degree Days  
Heating Degree Days 46    
Moisture  
Dew Point 15 °F    
Average Humidity 85    
Maximum Humidity 95    
Minimum Humidity 72    
Precipitation  
Precipitation 0.00 in - - ()
Sea Level Pressure  
Sea Level Pressure 30.00 in    
Wind  
Wind Speed 8 mph (East)    
Max Wind Speed 20 mph    
Max Gust Speed -    
Visibility 7 miles    
Events Fog    
Averages and records for this station are not official NWS values.
T = Trace of Precipitation, MM = Missing Value Source: NWS Daily Summary

Daily Weather History Graph

Daily Weather History Graph

Search for Another Location

Airport:

Trip Planner

Search our weather history database for the weather conditions in past years. The results will help you decide how hot, cold, wet, or windy it might be!

Date:

Astronomy

Dec. 31, 1969 Rise Set
Actual Time Sun does not rise Sun does not rise
Civil Twilight Sun does not rise Sun does not rise
Nautical Twilight Sun does not rise Sun does not rise
Astronomical Twilight Sun does not rise Sun does not rise
Moon 3:20 AM AKDT (5/24) 6:27 PM AKDT (5/24)
Length of Visible Light 24h 00m
Length of Day
24h 00m
Waning Crescent, 16% of the Moon is Illuminated
May 24
Waning Crescent
May 28
New
Jun 5
First Quarter
Jun 12
Full
Jun 19
Last Quarter

Hourly Weather History & Observations

Time (AKDT) Temp. Windchill Dew Point Humidity Pressure Visibility Wind Dir Wind Speed Gust Speed Precip Events Conditions
12:53 AM 16.0 °F 8.8 °F 14.0 °F 92% 30.12 in 10.0 mi ESE 4.6 mph - N/A   Scattered Clouds
1:53 AM 16.0 °F 10.4 °F 14.0 °F 92% 30.11 in 10.0 mi East 3.5 mph - N/A   Scattered Clouds
2:53 AM 18.0 °F 12.7 °F 15.1 °F 88% 30.11 in 10.0 mi East 3.5 mph - N/A   Mostly Cloudy
3:53 AM 15.1 °F 7.7 °F 12.9 °F 91% 30.10 in 10.0 mi East 4.6 mph - N/A   Scattered Clouds
4:36 AM 15.1 °F 6.4 °F 12.9 °F 91% 30.08 in 2.0 mi ESE 5.8 mph - N/A   Scattered Clouds
4:41 AM 14.0 °F 5.1 °F 12.0 °F 92% 30.08 in 0.8 mi ESE 5.8 mph - N/A   Scattered Clouds
4:46 AM 14.0 °F 5.1 °F 12.0 °F 92% 30.08 in 2.0 mi ESE 5.8 mph - N/A   Scattered Clouds
4:53 AM 14.0 °F 5.1 °F 12.9 °F 95% 30.09 in 2.5 mi ESE 5.8 mph - N/A   Scattered Clouds
5:03 AM 15.1 °F 7.7 °F 14.0 °F 95% 30.08 in 3.0 mi East 4.6 mph - N/A   Scattered Clouds
5:23 AM 15.1 °F 7.7 °F 14.0 °F 95% 30.08 in 2.0 mi ESE 4.6 mph - N/A   Scattered Clouds
5:30 AM 15.1 °F 7.7 °F 12.9 °F 91% 30.08 in 1.0 mi ESE 4.6 mph - N/A   Scattered Clouds
5:40 AM 15.1 °F 9.4 °F 14.0 °F 95% 30.07 in 0.8 mi ESE 3.5 mph - N/A   Scattered Clouds
5:50 AM 15.8 °F 8.6 °F 14.0 °F 93% 30.07 in 2.0 mi ESE 4.6 mph - N/A   Scattered Clouds
5:53 AM 15.1 °F 7.7 °F 14.0 °F 95% 30.08 in 2.5 mi ESE 4.6 mph - N/A   Scattered Clouds
6:53 AM 17.1 °F 10.0 °F 15.1 °F 92% 30.08 in 3.0 mi ESE 4.6 mph - N/A   Scattered Clouds
7:53 AM 17.1 °F 7.6 °F 15.1 °F 92% 30.06 in 4.0 mi East 6.9 mph - N/A   Mostly Cloudy
8:53 AM 18.0 °F 6.9 °F 15.1 °F 88% 30.05 in 10.0 mi East 9.2 mph - N/A Fog Patches of Fog
9:53 AM 19.0 °F 8.2 °F 16.0 °F 88% 30.04 in 10.0 mi East 9.2 mph - N/A Fog Patches of Fog
10:53 AM 21.0 °F 9.3 °F 16.0 °F 81% 30.03 in 10.0 mi East 11.5 mph - N/A Fog Patches of Fog
11:53 AM 21.9 °F 9.2 °F 17.1 °F 82% 30.01 in 10.0 mi ENE 13.8 mph - N/A   Partly Cloudy
12:20 PM 21.9 °F 9.2 °F 17.1 °F 82% 30.00 in 10.0 mi East 13.8 mph - N/A   Partly Cloudy
12:53 PM 23.0 °F 10.6 °F 16.0 °F 74% 30.00 in 10.0 mi ENE 13.8 mph - N/A   Scattered Clouds
1:53 PM 23.0 °F 10.1 °F 15.1 °F 72% 29.99 in 10.0 mi East 15.0 mph - N/A   Scattered Clouds
2:53 PM 23.0 °F 9.6 °F 15.1 °F 72% 29.98 in 10.0 mi East 16.1 mph - N/A   Mostly Cloudy
3:53 PM 23.0 °F 9.2 °F 16.0 °F 74% 29.96 in 10.0 mi East 17.3 mph - N/A   Overcast
4:53 PM 24.1 °F 10.1 °F 17.1 °F 75% 29.95 in 10.0 mi East 18.4 mph - N/A   Overcast
5:53 PM 23.0 °F 9.2 °F 16.0 °F 74% 29.93 in 10.0 mi East 17.3 mph - N/A   Overcast
6:53 PM 23.0 °F 8.7 °F 17.6 °F 80% 29.90 in 10.0 mi East 18.4 mph - N/A   Overcast
7:53 PM 23.0 °F 8.7 °F 16.0 °F 74% 29.89 in 10.0 mi East 18.4 mph - N/A   Overcast
8:02 PM 23.0 °F 9.6 °F 16.0 °F 74% 29.88 in 10.0 mi East 16.1 mph - N/A   Mostly Cloudy
8:25 PM 21.9 °F 7.3 °F 16.0 °F 78% 29.88 in 10.0 mi East 18.4 mph - N/A   Overcast
8:53 PM 21.9 °F 7.3 °F 16.0 °F 78% 29.88 in 10.0 mi East 18.4 mph - N/A   Overcast
9:53 PM 21.9 °F 6.9 °F 17.1 °F 82% 29.84 in 10.0 mi ENE 19.6 mph - N/A   Overcast
10:53 PM 21.9 °F 8.2 °F 17.1 °F 82% 29.84 in 10.0 mi East 16.1 mph - N/A   Overcast
11:45 PM 21.0 °F 6.2 °F 17.1 °F 85% 29.81 in 10.0 mi East 18.4 mph - N/A   Overcast
11:53 PM 21.9 °F 7.3 °F 17.1 °F 82% 29.81 in 10.0 mi East 18.4 mph - N/A   Overcast